Chillicothe, MO

4:32 PM CDT on April 25, 2017 (GMT -0500)
Chillicothe

Weather History for KCDJ - February, 2013

Change the Weather History Date:

Wednesday, February 13, 2013

  Actual Average (KIRK) Record (KIRK)
Temperature  
Mean Temperature 40 °F -  
Max Temperature 54 °F 38 °F 70 °F (1921)
Min Temperature 25 °F 19 °F -8 °F (1986)
Degree Days  
Heating Degree Days 26    
Moisture  
Dew Point 24 °F    
Average Humidity 61    
Maximum Humidity 88    
Minimum Humidity 30    
Precipitation  
Precipitation 0.00 in - - ()
Sea Level Pressure  
Sea Level Pressure 29.88 in    
Wind  
Wind Speed 3 mph (SW)    
Max Wind Speed 10 mph    
Max Gust Speed 17 mph    
Averages and records for this station are not official NWS values.
T = Trace of Precipitation, MM = Missing Value Source: NWS Daily Summary

Daily Weather History Graph

Daily Weather History Graph

Search for Another Location

Airport or City:

Trip Planner

Search our weather history database for the weather conditions in past years. The results will help you decide how hot, cold, wet, or windy it might be!

Date:

Astronomy

Feb. 13, 2013 Rise Set
Actual Time 7:09 AM CST 5:48 PM CST
Civil Twilight 6:41 AM CST 6:16 PM CST
Nautical Twilight 6:09 AM CST 6:48 PM CST
Astronomical Twilight 5:38 AM CST 7:19 PM CST
Moon 8:39 AM CST (2/13) 9:51 PM CST (2/13)
Length of Visible Light 11h 35m
Length of Day
10h 39m
Waxing Crescent, 14% of the Moon is Illuminated
Feb 13
Waxing Crescent
Feb 17
First Quarter
Feb 25
Full
Mar 4
Last Quarter
Mar 11
New

Hourly Weather History & Observations

Time (CST) Temp. Windchill Dew Point Humidity Pressure Visibility Wind Dir Wind Speed Gust Speed Precip Events Conditions
12:52 AM 28.0 °F 22.8 °F 23.0 °F 81% 29.97 in - SSW 4.6 mph - N/A   Unknown
1:52 AM 25.0 °F 19.3 °F 21.9 °F 88% 29.95 in - South 4.6 mph - N/A   Unknown
2:52 AM 26.1 °F - 21.9 °F 84% 29.93 in - Calm Calm - N/A   Unknown
3:52 AM 30.0 °F - 21.9 °F 72% 29.92 in - Calm Calm - N/A   Unknown
4:52 AM 28.9 °F 23.9 °F 21.9 °F 75% 29.91 in - West 4.6 mph - N/A   Unknown
5:52 AM 28.0 °F - 21.0 °F 75% 29.91 in - Calm Calm - N/A   Unknown
6:52 AM 27.0 °F - 21.0 °F 78% 29.92 in - Calm Calm - N/A   Unknown
7:52 AM 26.1 °F - 21.0 °F 81% 29.94 in - Calm Calm - N/A   Unknown
8:52 AM 32.0 °F - 24.1 °F 73% 29.94 in - Calm Calm - N/A   Unknown
9:52 AM 36.0 °F - 26.1 °F 67% 29.94 in - North - - N/A   Unknown
10:52 AM 41.0 °F 37.1 °F 26.1 °F 55% 29.92 in - WNW 5.8 mph - N/A   Unknown
11:52 AM 45.0 °F 41.8 °F 27.0 °F 49% 29.91 in - Variable 5.8 mph - N/A   Unknown
12:52 PM 48.9 °F - 28.9 °F 46% 29.88 in - WSW 8.1 mph 16.1 mph N/A   Unknown
1:52 PM 50.0 °F - 28.0 °F 43% 29.86 in - SW 5.8 mph - N/A   Unknown
2:52 PM 52.0 °F - 26.1 °F 37% 29.83 in - SW 10.4 mph - N/A   Unknown
3:52 PM 54.0 °F - 23.0 °F 30% 29.83 in - WSW 9.2 mph 17.3 mph N/A   Unknown
4:52 PM 53.1 °F - 24.1 °F 32% 29.82 in - Calm Calm - N/A   Unknown
5:52 PM 48.0 °F - 25.0 °F 41% 29.82 in - Calm Calm - N/A   Unknown
6:52 PM 41.0 °F - 27.0 °F 57% 29.83 in - Calm Calm - N/A   Unknown
7:52 PM 37.9 °F - 27.0 °F 65% 29.84 in - Calm Calm - N/A   Unknown
8:52 PM 39.0 °F 35.7 °F 25.0 °F 57% 29.82 in - SSW 4.6 mph - N/A   Unknown
9:52 PM 41.0 °F 38.0 °F 25.0 °F 53% 29.81 in - SSW 4.6 mph - N/A   Unknown
10:52 PM 35.1 °F 31.0 °F 25.0 °F 67% 29.81 in - SSW 4.6 mph - N/A   Unknown
11:52 PM 39.9 °F 35.8 °F 25.0 °F 55% 29.81 in - SW 5.8 mph - N/A   Unknown